EW9093 Weather Reports


time (UTC)temp
F
wind
direction
speed
knots
gust
knots
rain 1hr
in
rain 24hr
in
rain mn
in
humidity
%
barometer
mb
20260510175306 51 25 6.1 12.2 0.00 0.00 0.00 67 1016.2
20260510173804 50 25 5.2 14.8 0.00 0.00 0.00 69 1016.3
20260510173304 51 21 6.1 15.6 0.00 0.00 0.00 69 1016.4
20260510172804 51 22 7.8 19.1 0.00 0.00 0.00 67 1016.3
20260510171804 53 20 5.2 13.0 0.00 0.00 0.00 63 1016.4
20260510171304 53 39 4.3 11.3 0.00 0.00 0.00 63 1016.4
20260510170804 52 13 5.2 13.0 0.00 0.00 0.00 66 1016.5
20260510165306 53 51 5.2 14.8 0.00 0.00 0.00 65 1016.7
20260510164804 53 69 5.2 13.9 0.00 0.00 0.00 64 1016.8
20260510162804 54 36 8.7 14.8 0.00 0.00 0.00 64 1016.8
20260510161804 54 25 5.2 11.3 0.00 0.00 0.00 66 1016.9
20260510161304 54 66 5.2 12.2 0.00 0.00 0.00 66 1016.9
20260510155804 55 24 3.5 13.9 0.00 0.00 0.00 64 1017.0
20260510153304 56 64 5.2 18.2 0.00 0.00 0.00 65 1017.2
20260510152307 54 32 6.1 13.0 0.00 0.00 0.00 64 1017.4
20260510151804 55 33 7.0 19.1 0.00 0.00 0.00 63 1017.4
20260510151304 57 51 7.8 14.8 0.00 0.00 0.00 63 1017.4
20260510145804 55 36 10.4 20.0 0.00 0.00 0.00 63 1017.5
20260510145306 56 52 7.8 15.6 0.00 0.00 0.00 64 1017.5
20260510144804 55 18 7.0 12.2 0.00 0.00 0.00 67 1017.5
20260510144303 55 57 7.8 18.2 0.00 0.00 0.00 65 1017.6
20260510143804 56 30 8.7 18.2 0.00 0.00 0.00 65 1017.6
20260510143305 55 31 8.7 13.9 0.00 0.00 0.00 64 1017.6
20260510142306 57 49 5.2 18.2 0.00 0.00 0.00 64 1017.7
20260510140804 58 44 4.3 14.8 0.00 0.00 0.00 60 1017.7
20260510135806 57 23 5.2 13.0 0.00 0.00 0.00 64 1017.9
20260510135306 56 40 8.7 17.4 0.00 0.00 0.00 61 1017.8
20260510134304 55 30 7.8 14.8 0.00 0.00 0.00 64 1018.0
20260510133304 56 29 5.2 13.0 0.00 0.00 0.00 65 1017.9
20260510131804 56 62 8.7 18.2 0.00 0.00 0.00 64 1018.1
20260510131303 57 65 10.4 21.7 0.00 0.00 0.00 67 1018.1
20260510125803 55 46 7.8 17.4 0.00 0.00 0.00 67 1018.2
20260510125306 57 59 6.1 17.4 0.00 0.00 0.00 67 1018.2
20260510124804 56 43 5.2 19.1 0.00 0.00 0.00 69 1018.2
20260510124303 54 35 7.8 15.6 0.00 0.00 0.00 68 1018.4
20260510123804 54 34 6.1 15.6 0.00 0.00 0.00 68 1018.5
20260510121804 54 41 7.8 17.4 0.00 0.00 0.00 70 1018.7
20260510120804 55 31 8.7 15.6 0.00 0.00 0.00 71 1018.8
20260510120303 54 26 8.7 19.1 0.00 0.00 0.00 68 1018.8
20260510115306 54 56 7.8 13.9 0.00 0.00 0.00 70 1018.8
20260510113805 54 37 8.7 13.9 0.00 0.00 0.00 73 1018.9
20260510112305 53 31 6.1 13.0 0.00 0.00 0.00 75 1019.1
20260510111806 53 14 6.1 14.8 0.00 0.00 0.00 76 1019.1
20260510110805 54 19 6.1 14.8 0.00 0.00 0.00 77 1019.2
20260510104307 52 50 8.7 15.6 0.00 0.00 0.00 79 1019.5
20260510101305 54 43 7.0 14.8 0.00 0.00 0.00 75 1019.5
20260510100805 53 14 7.8 14.8 0.00 0.00 0.00 78 1019.5
20260510095805 53 24 6.1 13.9 0.00 0.00 0.00 80 1019.4
20260510095306 53 4 7.0 13.0 0.00 0.00 0.00 80 1019.5
20260510094306 54 36 5.2 15.6 0.00 0.00 0.00 79 1019.5
20260510093805 53 31 5.2 13.0 0.00 0.00 0.00 78 1019.5
20260510092805 54 31 5.2 13.0 0.00 0.00 0.00 80 1019.4
20260510092307 53 42 6.1 14.8 0.00 0.00 0.00 80 1019.7
20260510091806 53 43 6.1 13.9 0.00 0.00 0.00 80 1019.7
20260510090805 53 24 7.0 14.8 0.00 0.00 0.00 79 1019.7
20260510090305 53 33 6.1 14.8 0.00 0.00 0.00 83 1019.8
20260510084805 52 20 7.0 13.0 0.00 0.00 0.00 81 1020.0
20260510083305 52 21 7.8 18.2 0.00 0.00 0.00 84 1020.0
20260510082805 51 46 6.1 14.8 0.00 0.00 0.00 87 1020.1
20260510082307 51 32 5.2 12.2 0.00 0.00 0.00 88 1020.1
20260510081306 51 40 5.2 13.0 0.00 0.00 0.00 89 1020.1
20260510080805 50 35 6.1 12.2 0.00 0.00 0.00 89 1020.1
20260510075306 50 29 5.2 13.9 0.00 0.00 0.00 90 1020.0
20260510074305 50 26 5.2 13.9 0.00 0.00 0.00 90 1020.0
20260510073805 50 23 7.0 19.1 0.00 0.00 0.00 90 1020.0
20260510073305 50 43 4.3 12.2 0.00 0.00 0.00 90 1019.8
20260510072805 51 20 5.2 13.9 0.00 0.00 0.00 90 1019.8
20260510072306 51 15 6.1 13.0 0.00 0.00 0.00 90 1019.8
20260510071305 51 38 4.3 8.7 0.00 0.00 0.00 90 1019.7
20260510070305 51 41 5.2 10.4 0.00 0.00 0.00 91 1019.6
20260510064805 51 39 6.1 14.8 0.00 0.00 0.00 91 1019.5
20260510064305 51 22 4.3 7.8 0.00 0.00 0.00 92 1019.5
20260510063805 50 28 4.3 8.7 0.00 0.00 0.00 92 1019.4
20260510062805 50 27 6.1 12.2 0.00 0.00 0.00 92 1019.4
20260510054805 50 17 4.3 8.7 0.00 0.00 0.00 95 1019.0
20260510054305 49 23 4.3 13.0 0.00 0.00 0.00 95 1018.9
20260510053805 49 25 4.3 10.4 0.00 0.00 0.00 96 1019.0
20260510052805 49 31 4.3 7.8 0.00 0.00 0.00 96 1019.1
20260510052306 49 14 3.5 7.8 0.00 0.00 0.00 97 1019.1
20260510051804 49 12 2.6 7.8 0.00 0.00 0.00 97 1019.1
20260510051304 48 31 2.6 5.2 0.00 0.00 0.00 97 1019.1
20260510050305 48 27 1.7 5.2 0.00 0.00 0.00 96 1019.2
20260510045805 48 29 2.6 5.2 0.00 0.00 0.00 96 1019.2
20260510044805 47 9 1.7 4.3 0.00 0.00 0.00 96 1019.3
20260510044305 47 11 1.7 2.6 0.00 0.00 0.00 96 1019.4
20260510043805 47 352 1.7 4.3 0.00 0.00 0.00 96 1019.3
20260510043305 47 24 1.7 4.3 0.00 0.00 0.00 96 1019.3
20260510042805 46 26 0.9 2.6 0.00 0.00 0.00 96 1019.3
20260510041304 46 45 1.7 4.3 0.00 0.00 0.00 96 1019.4
20260510040305 46 15 1.7 2.6 0.00 0.00 0.00 96 1019.3
20260510035805 46 2 1.7 4.3 0.00 0.00 0.00 96 1019.3
20260510034805 46 29 1.7 2.6 0.00 0.00 0.00 96 1019.2
20260510034305 46 34 1.7 5.2 0.00 0.00 0.00 96 1019.3
20260510033805 46 38 1.7 5.2 0.00 0.00 0.00 96 1019.3
20260510033305 47 47 2.6 6.1 0.00 0.00 0.00 96 1019.3
20260510032805 47 38 2.6 7.8 0.00 0.00 0.00 96 1019.3
20260510032306 47 41 1.7 5.2 0.00 0.00 0.00 96 1019.3
20260510031304 47 45 2.6 5.2 0.00 0.00 0.00 96 1019.4
20260510030806 47 40 1.7 4.3 0.00 0.00 0.00 96 1019.6
20260510025804 47 40 2.6 5.2 0.00 0.00 0.00 96 1019.5
20260510024805 47 60 1.7 5.2 0.00 0.00 0.00 96 1019.6
20260510023804 47 28 1.7 4.3 0.00 0.00 0.00 95 1019.7
20260510023305 47 32 1.7 5.2 0.00 0.00 0.00 95 1019.7
20260510021305 47 23 1.7 4.3 0.00 0.00 0.00 95 1019.7
20260510020304 47 23 1.7 5.2 0.00 0.00 0.00 95 1019.7
20260510015807 47 43 1.7 5.2 0.00 0.00 0.00 95 1019.8
20260510015306 47 17 1.7 4.3 0.00 0.00 0.00 95 1019.8
20260510014305 47 43 1.7 2.6 0.00 0.00 0.00 95 1019.9
20260510013805 48 40 1.7 5.2 0.00 0.00 0.00 95 1019.9
20260510012307 48 34 2.6 6.1 0.00 0.00 0.00 95 1019.8
20260510011304 48 9 2.6 6.1 0.00 0.00 0.00 94 1019.8
20260510010805 48 10 1.7 5.2 0.00 0.00 0.00 94 1019.8
20260510010305 48 16 2.6 8.7 0.00 0.00 0.00 94 1019.7
20260510005804 48 29 2.6 5.2 0.00 0.00 0.00 94 1019.8
20260510004805 48 29 2.6 5.2 0.00 0.00 0.00 94 1019.8
20260510004305 49 12 1.7 4.3 0.00 0.00 0.00 94 1019.9
20260510003804 49 9 2.6 8.7 0.00 0.00 0.00 94 1019.8
20260510003304 49 21 2.6 10.4 0.00 0.00 0.00 94 1019.9
20260510002805 49 19 2.6 5.2 0.00 0.00 0.00 94 1019.9
20260510001805 49 19 2.6 7.0 0.00 0.00 0.00 94 1019.8
20260510000805 49 53 3.5 7.8 0.00 0.00 0.00 93 1019.9
20260509235307 50 49 2.6 10.4 0.00 0.00 0.00 93 1020.0
20260509234805 50 27 4.3 6.1 0.00 0.00 0.00 93 1020.1
20260509234305 50 35 2.6 7.0 0.00 0.00 0.00 93 1020.2
20260509233805 50 41 3.5 7.0 0.00 0.00 0.00 93 1020.2
20260509233306 50 33 2.6 6.1 0.00 0.00 0.00 93 1020.2
20260509231804 51 34 2.6 6.1 0.00 0.00 0.00 93 1020.2
20260509225806 51 35 3.5 7.0 0.00 0.00 0.00 93 1020.1
20260509215806 51 45 3.5 8.7 0.00 0.00 0.00 90 1019.7
20260509214805 51 55 4.3 8.7 0.00 0.00 0.00 89 1019.7
20260509213811 51 43 2.6 7.0 0.00 0.00 0.00 87 1019.6
20260509212806 51 39 2.6 7.8 0.00 0.00 0.00 85 1019.7
20260509204804 52 41 2.6 10.4 0.00 0.00 0.00 75 1019.5
20260509203807 53 23 1.7 6.1 0.00 0.00 0.00 74 1019.4
20260509202816 53 42 3.5 10.4 0.00 0.00 0.00 71 1019.4
20260509202315 54 44 2.6 6.1 0.00 0.00 0.00 70 1019.5
20260509195804 55 47 0.9 4.3 0.00 0.00 0.00 65 1019.3
20260509194804 56 26 0.9 4.3 0.00 0.00 0.00 63 1019.2
20260509190804 58 51 2.6 7.0 0.00 0.00 0.00 60 1018.7
20260509190304 59 53 4.3 10.4 0.00 0.00 0.00 59 1018.7
20260509185306 59 47 4.3 10.4 0.00 0.00 0.00 57 1018.6
20260509184305 60 45 4.3 13.0 0.00 0.00 0.00 55 1018.6
20260509183806 61 47 2.6 10.4 0.00 0.00 0.00 54 1018.5
20260509183305 61 56 3.5 7.8 0.00 0.00 0.00 53 1018.4
20260509182804 61 42 5.2 10.4 0.00 0.00 0.00 52 1018.6
20260509182306 62 49 2.6 7.8 0.00 0.00 0.00 52 1018.6
20260509181304 62 63 2.6 10.4 0.00 0.00 0.00 50 1018.5
20260509180804 62 51 3.5 10.4 0.00 0.00 0.00 50 1018.6
20260509180304 63 74 5.2 11.3 0.00 0.00 0.00 48 1018.6